Location: ?????????
(44.2517°N, 135.2292°E)
Time: 05:49:45
(UTC+00:00)

Cosmos 1733 - Pass Details

Date: 19 May 2025
Orbit: 376 x 382 km, 82.5° (Epoch: 15 June)

Event Time Altitude Azimuth Distance (km) Brightness Sun altitude
Rises 12:51:50 0° 340° (NNW) 2,305 8.0 -19.9°
Maximum altitude 12:56:42 26° 269° (W) 812 4.4 -20.3°
Enters shadow 12:57:18 25° 248° (WSW) 851 4.3 -20.4°
